Weather in Schwetzingen

Germany     49°22′46″N   8°34′34″E
temp.,
°C
wind,
m/s
gust,
m/s
humid.,
%
clouds,
%
prec.,
mm/h
press.,
hPa
HPBL,
m
23 january, sat
sat2301:00+3nnw4893100 4.2 996559
04:00+4wsw1483100 0.1 997254
07:00+3ssw1486100 0.1 998221
10:00+4ssw2582100 0.0 998511
13:00+5ssw2573100 0.0 998718
16:00+6ssw2469100 0.2 996648
19:00+4ssw1378100 0.3 99789
22:00+3ese118195 0.1 99722
24 january, sun
sun2401:00+3ne118296 0.1 99746
04:00+1nw4898100 4.9 997359
07:00+1w3892100 7.9 1000580
10:00+1w377853 0.1 1002859
13:00+2w356969 0.1 10021049
16:00+3wsw246597 0.0 10011040
19:00+2se117198 0.1 100253
22:00+1ese2374100 0.0 1001149
25 january, mon
mon2501:000ese138698 0.3 1002207
04:000nne1394100 1.6 1004193
07:000wnw0197100 2.2 100792
10:000ssw129685 0.1 1009172
13:00+1sw369092 0.3 1011549
16:00+1ssw4792100 0.2 1010580
19:00+1ssw3896100 0.8 1011413
22:00+1wsw3108499 0.1 1012652
26 january, tue
tue2601:00+1sw388299 0.1 1013618
04:00+1wsw3994100 0.6 1014607
07:00+2wsw41180100 0.8 1016776
10:00+2wsw4979100 0.0 1018748
13:00+3wsw4773100 0.0 1018897
16:00+3sw377699 0.1 1018887
19:00+3ssw3782100 0.1 1017722
22:00+2ssw4893100 0.3 1016542
27 january, wed
wed2701:00+2ssw61396100 1.8 1012694
04:00+5sw41488100 1.3 1009865
07:00+5wsw3138999 2.4 1010680
10:00+6w41277100 0.0 10131100
13:00+7w6116890 0.1 10161186
16:00+7w5106987 0.1 10171142
19:00+5wsw397887 0.1 1019447
22:00+5ssw3988100 0.1 1020524